Погода в Мамудзу

Майотта     12°46′58″S   45°13′51″E
темп.,
°C
ветер,
м/с
пор.,
м/с
влажн.,
%
обл.,
%
осадки,
мм/ч
давл.,
гПа
погр.,
м
4 марта, чт
чт400:00+28ссз567947 0.0 1009868
03:00+28ссз678046 0.1 1008838
06:00+28ссз7878100 0.1 1009854
09:00+28ссз7776100 0.1 1010934
12:00+29ссз787574 0.1 10091107
15:00+29ссз787587 0.1 1007945
18:00+28ссз677683 0.0 1008963
21:00+28ссз787791 0.1 1010977
5 марта, пт
пт500:00+28ссз7978100 2.9 1009929
03:00+28ссз81079100 6.6 1007966
06:00+28ссз81079100 0.6 10081008
09:00+29ссз91079100 2.4 10101049
12:00+29ссз91177100 0.2 10091219
15:00+29ссз91175100 0.3 10071205
18:00+29ссз91078100 0.3 10081019
21:00+28сз8980100 2.8 1010777
6 марта, сб
сб600:00+29ссз81078100 1.3 1009975
03:00+28ссз91078100 2.7 10081017
06:00+28сз91178100 1.7 10091006
09:00+29сз91177100 2.7 10111099
12:00+29сз91178100 1.5 10091073
15:00+29сз91077100 3.2 10081115
18:00+28сз8977100 3.3 1008784
21:00+28сз91079100 6.4 1010835
7 марта, вс
вс700:00+28сз91079100 5.4 1008801
03:00+27сз91182100 11.3 1007876
06:00+27сз121481100 10.4 10081106
09:00+26сз141691100 19.1 1009887
12:00+26сз121485100 13.5 1008848
15:00+26зсз81088100 20.1 1006738
18:00+26зсз101388100 5.4 1007923
21:00+26з101291100 16.5 1009810
8 марта, пн
пн800:00+26зсз81090100 10.8 1008601
03:00+26з7988100 16.7 1006668
06:00+25сз4687100 1.7 1007405
09:00+26ссз7989100 7.6 1009659
12:00+25сз4591100 12.1 1007359
15:00+27зсз81084100 17.8 1006788
18:00+26сз7988100 6.4 1007657
21:00+27сз7883100 8.3 1009671